Location: Newark
(13.8192°N, 100.4391°E)
Time: 08:10:21
(UTC+00:00)

N. Korean satellite - Visible Passes

Search period start: 11 December 2019 00:00
Search period end: 21 December 2019 00:00
Orbit: 455 x 506 km, 97.2° (Epoch: 10 December)

Date Brightness Start Highest point End Pass type
(mag) Time Alt. Az. Time Alt. Az. Time Alt. Az.
11 Dec 10.0 22:04:43 10° E 22:05:49 11° E 22:06:55 10° ESE visible
12 Dec 10.0 11:31:29 10° SW 11:33:28 14° W 11:35:26 10° WNW visible
13 Dec 7.1 22:44:55 10° NNE 22:48:18 59° E 22:51:39 10° S visible
14 Dec 9.2 22:20:12 10° NE 22:22:52 21° E 22:25:31 10° SSE visible
16 Dec 9.8 11:22:29 10° SW 11:25:06 18° W 11:27:43 10° NW visible
16 Dec 6.4 23:01:55 10° N 23:05:17 64° WNW 23:08:40 10° SSW visible
17 Dec 7.9 22:36:38 10° NNE 22:39:53 41° E 22:43:07 10° S visible
18 Dec 9.7 22:12:19 10° ENE 22:14:27 16° E 22:16:35 10° SE visible
20 Dec 9.4 11:13:41 10° SSW 11:16:43 24° W 11:19:44 10° NW visible
20 Dec 6.4 22:53:28 10° N 22:56:52 89° E 23:00:17 10° S visible
